This is the latest recevied weather packets stored in our database for station/object W1RCP. If no packets are shown the sender has not sent any weather packets the latest 1 day(s).
| Time | Temp. | Humidity | Pressure | Rain* | Wind** | Luminosity | Snow |
|---|---|---|---|---|---|---|---|
| 1778026833 | 25.56° C | 49% | 1025 hPa | 0 mm | 0.45 m/s, 206° | 2 W/m² | - |
| 1778026530 | 25.56° C | 48% | 1024.8 hPa | 0 mm | 0.45 m/s, 203° | 3 W/m² | - |
| 1778026227 | 25.56° C | 47% | 1024.8 hPa | 0 mm | 0.45 m/s, 202° | 5 W/m² | - |
| 1778025925 | 26.11° C | 47% | 1024.8 hPa | 0 mm | 0.45 m/s, 196° | 8 W/m² | - |
| 1778025622 | 26.11° C | 46% | 1024.9 hPa | 0 mm | 1.34 m/s, 203° | 10 W/m² | - |
| 1778025320 | 26.67° C | 45% | 1024.8 hPa | 0 mm | 0.89 m/s, 193° | 14 W/m² | - |
| 1778025016 | 26.67° C | 44% | 1024.7 hPa | 0 mm | 0.45 m/s, 205° | 20 W/m² | - |
| 1778024714 | 27.22° C | 42% | 1024.9 hPa | 0 mm | 0.89 m/s, 198° | 30 W/m² | - |
| 1778024410 | 27.78° C | 41% | 1024.7 hPa | 0 mm | 0.45 m/s, 200° | 40 W/m² | - |
| 1778024108 | 27.78° C | 41% | 1024.8 hPa | 0 mm | 0.45 m/s, 198° | 52 W/m² | - |
| 1778023805 | 27.78° C | 41% | 1024.8 hPa | 0 mm | 0 m/s | 59 W/m² | - |
| 1778023503 | 27.78° C | 40% | 1024.6 hPa | 0 mm | 0.89 m/s, 207° | 64 W/m² | - |
| 1778023200 | 27.78° C | 40% | 1024.7 hPa | 0 mm | 0.89 m/s, 197° | 64 W/m² | - |
| 1778022897 | 28.33° C | 39% | 1024.9 hPa | 0 mm | 0.89 m/s, 197° | 83 W/m² | - |
| 1778022595 | 28.33° C | 40% | 1024.7 hPa | 0 mm | 0.45 m/s, 213° | 97 W/m² | - |
| 1778022293 | 28.33° C | 39% | 1024.6 hPa | 0 mm | 0.89 m/s, 207° | 115 W/m² | - |
| 1778021989 | 28.33° C | 38% | 1024.6 hPa | 0 mm | 1.34 m/s, 236° | 131 W/m² | - |
| 1778021686 | 28.89° C | 38% | 1024.6 hPa | 0 mm | 0.89 m/s, 190° | 142 W/m² | - |
| 1778021382 | 28.89° C | 38% | 1024.6 hPa | 0 mm | 0.89 m/s, 207° | 149 W/m² | - |
| 1778021079 | 28.89° C | 38% | 1024.6 hPa | 0 mm | 1.79 m/s, 237° | 183 W/m² | - |
| 1778020776 | 28.89° C | 38% | 1024.8 hPa | 0 mm | 0.45 m/s, 197° | 206 W/m² | - |
| 1778020473 | 28.89° C | 37% | 1024.7 hPa | 0 mm | 0.45 m/s, 219° | 219 W/m² | - |
| 1778020169 | 28.89° C | 37% | 1024.7 hPa | 0 mm | 1.79 m/s, 203° | 227 W/m² | - |
| 1778019866 | 28.89° C | 36% | 1024.6 hPa | 0 mm | 1.34 m/s, 226° | 249 W/m² | - |
| 1778019562 | 29.44° C | 36% | 1024.7 hPa | 0 mm | 1.79 m/s, 198° | 276 W/m² | - |
* Rain latest hour (hover to see other rain measurements)
** Current wind speed in m/s (hover to see current wind gust speed)